Погода в Холме

Россия / Новгородская область     57°08′55″N   31°10′54″E
темп.,
°C
ветер,
м/с
пор.,
м/с
влажн.,
%
обл.,
%
осадки,
мм/ч
давл.,
гПа
погр.,
м
13 мая, чт
чт1300:00+13всв3109493 0.4 1016404
03:00+12в413938 0.6 1014618
06:00+12юв410881 0.1 1014812
09:00+13ююв58635 0.1 1015931
12:00+17юв584777 0.0 10141831
15:00+18вюв494595 0.0 10132097
18:00+13юв4975100 0.3 1012834
21:00+10вюв259170 0.4 1011109
14 мая, пт
пт1400:00+8юв29978 0.0 1011301
03:00+7ююв299811 0.0 1012234
06:00+7ююв310925 0.0 1012286
09:00+11юв4117498 0.0 1012736
12:00+16ююв51059100 0.0 10121193
15:00+19ююв6104974 0.0 10111940
18:00+17ююв366217 0.0 1010476
21:00+13в258445 0.2 100983
15 мая, сб
сб1500:00+11вюв23955 0.0 100946
03:00+10вюв2296100 0.0 100818
06:00+11вюв2395100 0.1 1007101
09:00+13ю0096100 1.3 100756
12:00+17сз117871 0.1 1007763
15:00+19юз117532 1.5 1005792
18:00+17зюз128760 3.6 1005142
21:00+13юз229350 4.3 100514
16 мая, вс
вс1600:00+11юз22979 0.0 100532
03:00+11зюз239874 0.1 100656
06:00+12зюз2498100 0.9 1007115
09:00+15зюз2388100 1.1 1008409
12:00+16зюз348385 0.0 1009557
15:00+20з23635 0.1 1009946
18:00+17зсз2387100 2.1 100989
21:00+14з119370 2.8 101010
17 мая, пн
пн1700:00+12ю11955 0.0 101110
03:00+11ююв229715 0.0 101219
06:00+12ююв229628 0.0 101260
09:00+17юв358193 0.0 1012413
12:00+22ююв465249 0.0 10111741
15:00+23ююв4648100 0.0 10102085
18:00+20юв3869100 0.0 1009432
21:00+15юз2290100 1.0 100950